User: anonymous   Login
Location: Unspecified
(0.0000°N, 0.0000°E)
Time: 07:15:08
(UTC+00:00)
Language:

Orbcomm G2 (FM04) - Orbit

View from above orbital plane
View from above orbital plane
View from above satellite
View from above satellite

Ground track
Ground track

The orbit data is extracted from the following two-line orbital elements,

1 25159U 98007C   17178.85028843 +.00000070 +00000-0 +78363-4 0  9996
2 25159 107.9879 308.8549 0045882 258.2672 101.3315 14.29399993007886
Epoch (UTC): 27 June 2017 20:24:24
Eccentricity: 0.0045882
inclination: 107.9879°
perigee height: 761 km
apogee height: 826 km
right ascension of ascending node: 308.8549°
argument of perigee: 258.2672°
revolutions per day: 14.29399993
mean anomaly at epoch: 101.3315°
orbit number at epoch: 788

The dashed part of the orbit path shows where the satellite is in the earth's shadow,  

DLR